,,,PA_Meas_PMT16A,,PR_Meas_QMR101_102,,RH_Meas_QMH101,,SR_Meas_QMS101,,TA_Meas_QMH101,,GenWind,,GenWind,
date,time,status,PA,status,PR,status,RH,status,SR,status,TA,status,DirAvg,status,SpdAvg,
2011-10-01, 00:00:05,VALID,1004.82,VALID,0,VALID,93.3699,VALID,0,VALID,25.5123,VALID,357,VALID,0.565625,
2011-10-01, 00:01:05,VALID,1004.82,VALID,0,VALID,93.4767,VALID,0,VALID,25.5337,VALID,4,VALID,0.726172,
2011-10-01, 00:02:05,VALID,1004.81,VALID,0,VALID,93.2859,VALID,0,VALID,25.5123,VALID,12,VALID,0.836328,
2011-10-01, 00:03:05,VALID,1004.76,VALID,0,VALID,93.3088,VALID,0,VALID,25.5513,VALID,11,VALID,0.546875,
2011-10-01, 00:04:05,VALID,1004.76,VALID,0,VALID,93.3775,VALID,0,VALID,25.5707,VALID,10,VALID,0.462109,
2011-10-01, 00:05:05,VALID,1004.76,VALID,0,VALID,93.2249,VALID,0,VALID,25.6311,VALID,10,VALID,0.5125,
2011-10-01, 00:06:05,VALID,1004.74,VALID,0,VALID,92.9198,VALID,0,VALID,25.6292,VALID,12,VALID,0.4875,
2011-10-01, 00:07:05,VALID,1004.75,VALID,0,VALID,92.7367,VALID,0,VALID,25.6895,VALID,14,VALID,0.603125,
2011-10-01, 00:08:05,VALID,1004.75,VALID,0,VALID,92.7519,VALID,0,VALID,25.6876,VALID,15,VALID,0.333984,
2011-10-01, 00:09:05,VALID,1004.73,VALID,0,VALID,92.6146,VALID,0,VALID,25.7285,VALID,15,VALID,0.207422,
2011-10-01, 00:10:05,VALID,1004.72,VALID,0,VALID,92.6833,VALID,0,VALID,25.748,VALID,15,VALID,0.271875,
2011-10-01, 00:11:05,VALID,1004.74,VALID,0,VALID,92.8206,VALID,0,VALID,25.748,VALID,15,VALID,0,
2011-10-01, 00:12:05,VALID,1004.72,VALID,0,VALID,92.7672,VALID,0,VALID,25.7265,VALID,15,VALID,0,
2011-10-01, 00:13:05,VALID,1004.7,VALID,0,VALID,92.5993,VALID,0,VALID,25.7071,VALID,21,VALID,0.0367187,
2011-10-01, 00:14:05,VALID,1004.69,VALID,0,VALID,92.8053,VALID,0,VALID,25.6895,VALID,54,VALID,0.180469,
2011-10-01, 00:15:05,VALID,1004.67,VALID,0,VALID,93.1486,VALID,0,VALID,25.6895,VALID,54,VALID,0.134375,
2011-10-01, 00:16:05,VALID,1004.66,VALID,0,VALID,93.0037,VALID,0,VALID,25.67,VALID,54,VALID,0,
2011-10-01, 00:17:05,VALID,1004.66,VALID,0,VALID,92.874,VALID,0,VALID,25.6506,VALID,54,VALID,0,
2011-10-01, 00:18:05,VALID,1004.66,VALID,0,VALID,93.0113,VALID,0,VALID,25.6311,VALID,54,VALID,0,
2011-10-01, 00:19:05,VALID,1004.63,VALID,0,VALID,93.1029,VALID,0,VALID,25.6311,VALID,54,VALID,0,
2011-10-01, 00:20:05,VALID,1004.62,VALID,0,VALID,93.4004,VALID,0,VALID,25.5902,VALID,54,VALID,0,
2011-10-01, 00:21:05,VALID,1004.64,VALID,0,VALID,93.2859,VALID,0,VALID,25.5921,VALID,54,VALID,0,
2011-10-01, 00:22:05,VALID,1004.64,VALID,0,VALID,93.4004,VALID,0,VALID,25.5921,VALID,54,VALID,0.210547,
2011-10-01, 00:23:05,VALID,1004.61,VALID,0,VALID,93.2325,VALID,0,VALID,25.5318,VALID,53,VALID,0.392578,
2011-10-01, 00:24:05,VALID,1004.59,VALID,0,VALID,93.2631,VALID,0,VALID,25.5532,VALID,47,VALID,0.369141,
2011-10-01, 00:25:05,VALID,1004.57,VALID,0,VALID,93.3088,VALID,0,VALID,25.5337,VALID,47,VALID,0.334375,
2011-10-01, 00:26:05,VALID,1004.55,VALID,0,VALID,93.4767,VALID,0,VALID,25.5123,VALID,47,VALID,0.330859,
2011-10-01, 00:27:05,VALID,1004.57,VALID,0,VALID,93.5606,VALID,0,VALID,25.5357,VALID,47,VALID,0,
2011-10-01, 00:28:05,VALID,1004.57,VALID,0,VALID,93.7742,VALID,0,VALID,25.4928,VALID,47,VALID,0.332422,
2011-10-01, 00:29:05,VALID,1004.54,VALID,0,VALID,93.7971,VALID,0,VALID,25.5142,VALID,40,VALID,0.300391,
2011-10-01, 00:30:05,VALID,1004.53,VALID,0,VALID,93.7132,VALID,0,VALID,25.4948,VALID,40,VALID,0.0796875,
2011-10-01, 00:31:05,VALID,1004.53,VALID,0,VALID,93.7284,VALID,0,VALID,25.4734,VALID,40,VALID,0.398047,
2011-10-01, 00:32:05,VALID,1004.52,VALID,0,VALID,93.7361,VALID,0,VALID,25.4539,VALID,39,VALID,0.321875,
2011-10-01, 00:33:05,VALID,1004.49,VALID,0,VALID,93.6826,VALID,0,VALID,25.4539,VALID,39,VALID,0.159375,
2011-10-01, 00:34:05,VALID,1004.46,VALID,0,VALID,93.5987,VALID,0,VALID,25.4344,VALID,38,VALID,0.241797,
2011-10-01, 00:35:05,VALID,1004.45,VALID,0,VALID,93.553,VALID,0,VALID,25.4558,VALID,38,VALID,0.323047,
2011-10-01, 00:36:05,VALID,1004.44,VALID,0,VALID,93.4385,VALID,0,VALID,25.4539,VALID,38,VALID,0.298047,
2011-10-01, 00:37:05,VALID,1004.47,VALID,0,VALID,93.3928,VALID,0,VALID,25.4539,VALID,25,VALID,0.351953,
2011-10-01, 00:38:05,VALID,1004.46,VALID,0,VALID,93.2478,VALID,0,VALID,25.4734,VALID,25,VALID,0,
2011-10-01, 00:39:05,VALID,1004.42,VALID,0,VALID,93.3394,VALID,0,VALID,25.4928,VALID,25,VALID,0.208984,
2011-10-01, 00:40:05,VALID,1004.43,VALID,0,VALID,93.1486,VALID,0,VALID,25.4928,VALID,25,VALID,0.214062,
2011-10-01, 00:41:05,VALID,1004.44,VALID,0,VALID,93.0495,VALID,0,VALID,25.4928,VALID,25,VALID,0,
2011-10-01, 00:42:05,VALID,1004.44,VALID,0,VALID,92.9198,VALID,0,VALID,25.5123,VALID,25,VALID,0.100781,
2011-10-01, 00:43:05,VALID,1004.44,VALID,0,VALID,92.8053,VALID,0,VALID,25.5337,VALID,25,VALID,0.0273438,
2011-10-01, 00:44:05,VALID,1004.43,VALID,0,VALID,92.9274,VALID,0,VALID,25.5123,VALID,25,VALID,0.153516,
2011-10-01, 00:45:05,VALID,1004.41,VALID,0,VALID,92.9579,VALID,0,VALID,25.4928,VALID,25,VALID,0.108984,
2011-10-01, 00:46:05,VALID,1004.41,VALID,0,VALID,93.2402,VALID,0.0815089,VALID,25.4928,VALID,25,VALID,0,
2011-10-01, 00:47:05,VALID,1004.4,VALID,0,VALID,93.3088,VALID,0,VALID,25.4734,VALID,25,VALID,0,
2011-10-01, 00:48:05,VALID,1004.41,VALID,0,VALID,93.3699,VALID,0.0815089,VALID,25.4734,VALID,25,VALID,0,
2011-10-01, 00:49:05,VALID,1004.43,VALID,0,VALID,93.3775,VALID,0.0815089,VALID,25.4344,VALID,25,VALID,0,
2011-10-01, 00:50:05,VALID,1004.42,VALID,0,VALID,93.4385,VALID,0,VALID,25.4149,VALID,25,VALID,0.0113281,
2011-10-01, 00:51:05,VALID,1004.39,VALID,0,VALID,93.469,VALID,0,VALID,25.3955,VALID,25,VALID,0.353125,
2011-10-01, 00:52:05,VALID,1004.41,VALID,0,VALID,93.6369,VALID,0,VALID,25.3546,VALID,25,VALID,0,
2011-10-01, 00:53:05,VALID,1004.37,VALID,0.5,VALID,93.7437,VALID,0,VALID,25.3351,VALID,25,VALID,0.046875,
2011-10-01, 00:54:05,VALID,1004.37,VALID,0,VALID,93.8657,VALID,0,VALID,25.3565,VALID,25,VALID,0,
2011-10-01, 00:55:05,VALID,1004.34,VALID,0,VALID,93.9344,VALID,0,VALID,25.3157,VALID,25,VALID,0,
2011-10-01, 00:56:05,VALID,1004.31,VALID,0,VALID,94.0412,VALID,0,VALID,25.3176,VALID,25,VALID,0,
2011-10-01, 00:57:05,VALID,1004.34,VALID,0,VALID,94.1709,VALID,0,VALID,25.3176,VALID,25,VALID,0.190625,
2011-10-01, 00:58:05,VALID,1004.3,VALID,0,VALID,94.087,VALID,0,VALID,25.3195,VALID,22,VALID,0.286328,
2011-10-01, 00:59:05,VALID,1004.29,VALID,0,VALID,93.8276,VALID,0,VALID,25.3195,VALID,14,VALID,0.835938,
2011-10-01, 01:00:05,VALID,1004.28,VALID,0,VALID,92.9655,VALID,0,VALID,25.3565,VALID,21,VALID,1.12539,
2011-10-01, 01:01:05,VALID,1004.25,VALID,0,VALID,92.9198,VALID,0,VALID,25.4149,VALID,11,VALID,0.597656,
2011-10-01, 01:02:05,VALID,1004.24,VALID,0,VALID,92.6833,VALID,0,VALID,25.4753,VALID,11,VALID,0.772266,
2011-10-01, 01:03:05,VALID,1004.26,VALID,0,VALID,92.546,VALID,0.0815089,VALID,25.4714,VALID,19,VALID,0.684766,
2011-10-01, 01:04:05,VALID,1004.24,VALID,0,VALID,91.8899,VALID,0.0815089,VALID,25.4909,VALID,7,VALID,1.18672,
2011-10-01, 01:05:05,VALID,1004.23,VALID,0,VALID,91.6076,VALID,0.0815089,VALID,25.5493,VALID,15,VALID,0.890625,
2011-10-01, 01:06:05,VALID,1004.22,VALID,0,VALID,91.1728,VALID,0.0815089,VALID,25.5688,VALID,16,VALID,0.798047,
2011-10-01, 01:07:05,VALID,1004.23,VALID,0,VALID,91.0354,VALID,0.163018,VALID,25.6077,VALID,19,VALID,0.917578,
2011-10-01, 01:08:05,VALID,1004.23,VALID,0,VALID,91.0888,VALID,0.0815089,VALID,25.6467,VALID,15,VALID,0.891016,
2011-10-01, 01:09:05,VALID,1004.2,VALID,0,VALID,91.4092,VALID,0.0815089,VALID,25.6272,VALID,25,VALID,0.573438,
2011-10-01, 01:10:05,VALID,1004.19,VALID,0,VALID,91.1193,VALID,0.0815089,VALID,25.6272,VALID,24,VALID,0.377734,
2011-10-01, 01:11:05,VALID,1004.18,VALID,0,VALID,91.0659,VALID,0.163018,VALID,25.6077,VALID,30,VALID,0.602734,
2011-10-01, 01:12:05,VALID,1004.17,VALID,0,VALID,90.6311,VALID,0.0815089,VALID,25.6077,VALID,50,VALID,0.508594,
2011-10-01, 01:13:05,VALID,1004.17,VALID,0,VALID,90.7226,VALID,0.0815089,VALID,25.6272,VALID,36,VALID,0.215234,
2011-10-01, 01:14:05,VALID,1004.15,VALID,0,VALID,91.0202,VALID,0.0815089,VALID,25.6272,VALID,80,VALID,0.198828,
2011-10-01, 01:15:05,VALID,1004.15,VALID,0,VALID,90.9744,VALID,0.163018,VALID,25.6077,VALID,69,VALID,0.191406,
2011-10-01, 01:16:05,VALID,1004.15,VALID,0,VALID,91.1041,VALID,0.0815089,VALID,25.6292,VALID,68,VALID,0.317969,
2011-10-01, 01:17:05,VALID,1004.11,VALID,0,VALID,91.0507,VALID,0.0815089,VALID,25.5883,VALID,23,VALID,0.541016,
2011-10-01, 01:18:05,VALID,1004.11,VALID,0,VALID,90.7608,VALID,0.0815089,VALID,25.5883,VALID,17,VALID,0.852734,
2011-10-01, 01:19:05,VALID,1004.08,VALID,0,VALID,91.0125,VALID,0.0815089,VALID,25.5883,VALID,16,VALID,1.13789,
2011-10-01, 01:20:05,VALID,1004.07,VALID,0,VALID,90.7837,VALID,0.0815089,VALID,25.6272,VALID,20,VALID,0.703906,
2011-10-01, 01:21:05,VALID,1004.05,VALID,0,VALID,90.9515,VALID,0.0815089,VALID,25.6272,VALID,11,VALID,0.724219,
2011-10-01, 01:22:05,VALID,1004.02,VALID,0,VALID,91.0431,VALID,0.0815089,VALID,25.6077,VALID,16,VALID,0.793359,
2011-10-01, 01:23:05,VALID,1004.04,VALID,0,VALID,91.4169,VALID,0.0815089,VALID,25.5688,VALID,24,VALID,0.422266,
2011-10-01, 01:24:05,VALID,1004.01,VALID,0,VALID,91.6915,VALID,0.0815089,VALID,25.5493,VALID,24,VALID,0.154297,
2011-10-01, 01:25:05,VALID,1004.02,VALID,0,VALID,91.7907,VALID,0.0815089,VALID,25.5298,VALID,23,VALID,0.508984,
2011-10-01, 01:26:05,VALID,1003.99,VALID,0,VALID,91.5313,VALID,0.0815089,VALID,25.5104,VALID,1,VALID,0.670703,
2011-10-01, 01:27:05,VALID,1003.97,VALID,0,VALID,91.6305,VALID,0.0815089,VALID,25.5104,VALID,32,VALID,0.904297,
2011-10-01, 01:28:05,VALID,1003.98,VALID,0,VALID,91.4245,VALID,0.0815089,VALID,25.5104,VALID,22,VALID,0.400391,
2011-10-01, 01:29:05,VALID,1004,VALID,0,VALID,91.5008,VALID,0.0815089,VALID,25.5707,VALID,19,VALID,0.149609,
2011-10-01, 01:30:05,VALID,1003.96,VALID,0,VALID,91.3558,VALID,0.0815089,VALID,25.5318,VALID,27,VALID,0.555078,
2011-10-01, 01:31:05,VALID,1003.96,VALID,0,VALID,91.3253,VALID,0.0815089,VALID,25.5104,VALID,23,VALID,1.17969,
2011-10-01, 01:32:05,VALID,1003.94,VALID,0,VALID,91.394,VALID,0.0815089,VALID,25.5298,VALID,16,VALID,0.849609,
2011-10-01, 01:33:05,VALID,1003.91,VALID,0,VALID,91.3787,VALID,0,VALID,25.5513,VALID,21,VALID,0.744922,
2011-10-01, 01:34:05,VALID,1003.9,VALID,0,VALID,91.6381,VALID,0,VALID,25.5513,VALID,19,VALID,0.5625,
2011-10-01, 01:35:05,VALID,1003.88,VALID,0,VALID,91.4779,VALID,0,VALID,25.5318,VALID,19,VALID,0.875391,
2011-10-01, 01:36:05,VALID,1003.86,VALID,0,VALID,91.5771,VALID,0,VALID,25.4909,VALID,18,VALID,0.879687,
2011-10-01, 01:37:05,VALID,1003.83,VALID,0,VALID,91.6915,VALID,0,VALID,25.5123,VALID,27,VALID,0.802734,
2011-10-01, 01:38:05,VALID,1003.83,VALID,0,VALID,91.7373,VALID,0,VALID,25.4714,VALID,17,VALID,1.04141,
2011-10-01, 01:39:05,VALID,1003.83,VALID,0,VALID,91.5847,VALID,0.0815089,VALID,25.4928,VALID,18,VALID,0.666797,
2011-10-01, 01:40:05,VALID,1003.83,VALID,0,VALID,91.867,VALID,0,VALID,25.4928,VALID,18,VALID,0.228125,
2011-10-01, 01:41:05,VALID,1003.8,VALID,0,VALID,91.7907,VALID,0,VALID,25.4734,VALID,20,VALID,0.364453,
2011-10-01, 01:42:05,VALID,1003.83,VALID,0,VALID,91.9662,VALID,0,VALID,25.4928,VALID,20,VALID,0.0808594,
2011-10-01, 01:43:05,VALID,1003.81,VALID,0,VALID,92.134,VALID,0,VALID,25.4325,VALID,27,VALID,0,
2011-10-01, 01:44:05,VALID,1003.82,VALID,0,VALID,92.3705,VALID,0,VALID,25.4539,VALID,27,VALID,0.0230469,
2011-10-01, 01:45:05,VALID,1003.82,VALID,0,VALID,92.5688,VALID,0,VALID,25.4558,VALID,27,VALID,0,
2011-10-01, 01:46:05,VALID,1003.83,VALID,0,VALID,92.6299,VALID,0,VALID,25.3955,VALID,28,VALID,0.132422,
2011-10-01, 01:47:05,VALID,1003.81,VALID,0,VALID,92.607,VALID,0,VALID,25.376,VALID,85,VALID,0.653125,
2011-10-01, 01:48:05,VALID,1003.8,VALID,0,VALID,92.6985,VALID,0,VALID,25.337,VALID,82,VALID,0.647266,
2011-10-01, 01:49:05,VALID,1003.77,VALID,0,VALID,92.813,VALID,0,VALID,25.337,VALID,84,VALID,0.0382813,
2011-10-01, 01:50:05,VALID,1003.74,VALID,0,VALID,92.8358,VALID,0,VALID,25.3176,VALID,60,VALID,0.471875,
2011-10-01, 01:51:05,VALID,1003.71,VALID,0,VALID,92.7977,VALID,0,VALID,25.3176,VALID,63,VALID,0.203516,
2011-10-01, 01:52:05,VALID,1003.7,VALID,0,VALID,92.8206,VALID,0,VALID,25.2981,VALID,64,VALID,0.426562,
2011-10-01, 01:53:05,VALID,1003.7,VALID,0,VALID,92.9579,VALID,0.0815089,VALID,25.2981,VALID,64,VALID,0.114063,
2011-10-01, 01:54:05,VALID,1003.68,VALID,0,VALID,92.9884,VALID,0,VALID,25.2981,VALID,87,VALID,0.142578,
2011-10-01, 01:55:05,VALID,1003.63,VALID,0,VALID,93.0189,VALID,0,VALID,25.2981,VALID,87,VALID,0.491406,
2011-10-01, 01:56:05,VALID,1003.63,VALID,0,VALID,92.9274,VALID,0,VALID,25.2786,VALID,80,VALID,0.337109,
2011-10-01, 01:57:05,VALID,1003.64,VALID,0,VALID,92.9579,VALID,0,VALID,25.2786,VALID,80,VALID,0.152344,
2011-10-01, 01:58:05,VALID,1003.63,VALID,0,VALID,92.9121,VALID,0,VALID,25.2786,VALID,80,VALID,0.528906,
2011-10-01, 01:59:05,VALID,1003.66,VALID,0,VALID,92.9045,VALID,0,VALID,25.3,VALID,81,VALID,0.435156,
2011-10-01, 02:00:05,VALID,1003.63,VALID,0,VALID,92.9579,VALID,0,VALID,25.3,VALID,81,VALID,0.491406,
2011-10-01, 02:01:05,VALID,1003.65,VALID,0,VALID,92.9579,VALID,0,VALID,25.2786,VALID,80,VALID,0.245703,
2011-10-01, 02:02:05,VALID,1003.63,VALID,0,VALID,92.9198,VALID,0,VALID,25.2592,VALID,80,VALID,0.237109,
2011-10-01, 02:03:05,VALID,1003.65,VALID,0,VALID,92.9274,VALID,0,VALID,25.2592,VALID,80,VALID,0,
2011-10-01, 02:04:05,VALID,1003.65,VALID,0,VALID,93.0723,VALID,0,VALID,25.2806,VALID,80,VALID,0,
2011-10-01, 02:05:05,VALID,1003.69,VALID,0,VALID,92.9579,VALID,0,VALID,25.2397,VALID,80,VALID,0,
2011-10-01, 02:06:05,VALID,1003.68,VALID,0,VALID,92.9655,VALID,0,VALID,25.2397,VALID,80,VALID,0,
2011-10-01, 02:07:05,VALID,1003.66,VALID,0,VALID,92.9121,VALID,0,VALID,25.2202,VALID,72,VALID,0.236328,
2011-10-01, 02:08:05,VALID,1003.68,VALID,0,VALID,92.7519,VALID,0.0815089,VALID,25.2007,VALID,24,VALID,0.621094,
2011-10-01, 02:09:05,VALID,1003.67,VALID,0,VALID,92.5993,VALID,0,VALID,25.2397,VALID,11,VALID,0.583203,
2011-10-01, 02:10:05,VALID,1003.65,VALID,0,VALID,92.2637,VALID,0,VALID,25.2592,VALID,17,VALID,0.749219,
2011-10-01, 02:11:05,VALID,1003.63,VALID,0,VALID,91.9356,VALID,0,VALID,25.3195,VALID,40,VALID,0.987109,
2011-10-01, 02:12:05,VALID,1003.64,VALID,0,VALID,92.1111,VALID,0,VALID,25.337,VALID,18,VALID,0.334766,
2011-10-01, 02:13:05,VALID,1003.65,VALID,0,VALID,91.9509,VALID,0,VALID,25.3565,VALID,18,VALID,0.285937,
2011-10-01, 02:14:05,VALID,1003.66,VALID,0,VALID,91.9051,VALID,0,VALID,25.3157,VALID,24,VALID,0.590234,
2011-10-01, 02:15:05,VALID,1003.64,VALID,0,VALID,92.073,VALID,0,VALID,25.337,VALID,24,VALID,0.351172,
2011-10-01, 02:16:05,VALID,1003.63,VALID,0,VALID,92.2484,VALID,0,VALID,25.337,VALID,24,VALID,0.0128906,
2011-10-01, 02:17:05,VALID,1003.66,VALID,0,VALID,92.1569,VALID,0.0815089,VALID,25.2962,VALID,24,VALID,0.400781,
2011-10-01, 02:18:05,VALID,1003.66,VALID,0,VALID,92.4773,VALID,0.0815089,VALID,25.3176,VALID,30,VALID,0.410156,
2011-10-01, 02:19:05,VALID,1003.64,VALID,0,VALID,92.4468,VALID,0,VALID,25.2786,VALID,27,VALID,0.61875,
2011-10-01, 02:20:05,VALID,1003.66,VALID,0,VALID,92.813,VALID,0.0815089,VALID,25.2572,VALID,25,VALID,0.472656,
2011-10-01, 02:21:05,VALID,1003.65,VALID,0,VALID,92.6833,VALID,0.0815089,VALID,25.2592,VALID,25,VALID,0.512891,
2011-10-01, 02:22:05,VALID,1003.66,VALID,0,VALID,92.6146,VALID,0,VALID,25.2378,VALID,29,VALID,0.516406,
2011-10-01, 02:23:05,VALID,1003.67,VALID,0,VALID,92.7824,VALID,0,VALID,25.2572,VALID,20,VALID,0.699609,
2011-10-01, 02:24:05,VALID,1003.64,VALID,0,VALID,92.4849,VALID,0,VALID,25.2378,VALID,19,VALID,0.678125,
2011-10-01, 02:25:05,VALID,1003.6,VALID,0,VALID,91.9128,VALID,0,VALID,25.3176,VALID,43,VALID,0.610937,
2011-10-01, 02:26:05,VALID,1003.61,VALID,0,VALID,91.3864,VALID,0,VALID,25.3779,VALID,22,VALID,1.11445,
2011-10-01, 02:27:05,VALID,1003.6,VALID,0,VALID,91.1728,VALID,0,VALID,25.4558,VALID,28,VALID,0.644141,
2011-10-01, 02:28:05,VALID,1003.58,VALID,0,VALID,90.8218,VALID,0,VALID,25.4734,VALID,16,VALID,0.638281,
2011-10-01, 02:29:05,VALID,1003.55,VALID,0,VALID,90.5548,VALID,0,VALID,25.5318,VALID,7,VALID,1.10273,
2011-10-01, 02:30:05,VALID,1003.55,VALID,0,VALID,90.5472,VALID,0.0815089,VALID,25.5707,VALID,23,VALID,0.569531,
2011-10-01, 02:31:04,VALID,1003.53,VALID,0,VALID,90.448,VALID,0,VALID,25.5921,VALID,20,VALID,0.496875,
2011-10-01, 02:32:04,VALID,1003.57,VALID,0,VALID,90.3031,VALID,0.0815089,VALID,25.5902,VALID,18,VALID,0.973828,
2011-10-01, 02:33:04,VALID,1003.58,VALID,0,VALID,90.2954,VALID,0.0815089,VALID,25.6097,VALID,13,VALID,0.635938,
2011-10-01, 02:34:04,VALID,1003.65,VALID,0,VALID,89.8148,VALID,0,VALID,25.6486,VALID,337,VALID,0.83125,
2011-10-01, 02:35:04,VALID,1003.67,VALID,0,VALID,90.4556,VALID,0.0815089,VALID,25.6681,VALID,281,VALID,0.742969,
2011-10-01, 02:36:04,VALID,1003.73,VALID,0,VALID,90.242,VALID,0,VALID,25.6662,VALID,280,VALID,0.815234,
2011-10-01, 02:37:04,VALID,1003.78,VALID,0,VALID,90.5167,VALID,0,VALID,25.6272,VALID,281,VALID,2.3918,
2011-10-01, 02:38:04,VALID,1003.81,VALID,0,VALID,90.4556,VALID,0.0815089,VALID,25.5707,VALID,287,VALID,2.75742,
2011-10-01, 02:39:04,VALID,1003.89,VALID,0,VALID,90.8295,VALID,0,VALID,25.4928,VALID,290,VALID,2.14922,
2011-10-01, 02:40:04,VALID,1003.93,VALID,0,VALID,91.722,VALID,0,VALID,25.4734,VALID,313,VALID,0.346094,
2011-10-01, 02:41:04,VALID,1003.97,VALID,0,VALID,91.7983,VALID,0,VALID,25.4344,VALID,291,VALID,1.70352,
2011-10-01, 02:42:04,VALID,1004.04,VALID,0,VALID,92.3095,VALID,0,VALID,25.3955,VALID,4,VALID,0.682813,
2011-10-01, 02:43:04,VALID,1004.07,VALID,0,VALID,92.2942,VALID,0,VALID,25.3565,VALID,295,VALID,1.65273,
2011-10-01, 02:44:04,VALID,1004.04,VALID,0,VALID,92.5078,VALID,0,VALID,25.3176,VALID,287,VALID,1.93438,
2011-10-01, 02:45:04,VALID,1003.98,VALID,0.5,VALID,92.8435,VALID,0,VALID,25.2786,VALID,331,VALID,1.14727,
2011-10-01, 02:46:04,VALID,1003.93,VALID,0.5,VALID,92.9655,VALID,0,VALID,25.1813,VALID,281,VALID,1.81484,
2011-10-01, 02:47:04,VALID,1003.86,VALID,0,VALID,93.2859,VALID,0,VALID,25.0839,VALID,330,VALID,0.951563,
2011-10-01, 02:48:04,VALID,1003.89,VALID,0.5,VALID,93.6826,VALID,0,VALID,24.9866,VALID,345,VALID,1.60625,
2011-10-01, 02:49:04,VALID,1003.92,VALID,0,VALID,94.0641,VALID,0,VALID,24.9495,VALID,6,VALID,0.628125,
2011-10-01, 02:50:04,VALID,1004,VALID,0,VALID,94.1022,VALID,0.0815089,VALID,24.8911,VALID,290,VALID,1.23203,
2011-10-01, 02:51:04,VALID,1004.06,VALID,0,VALID,94.354,VALID,0,VALID,24.8697,VALID,260,VALID,0.725781,
2011-10-01, 02:52:04,VALID,1004.1,VALID,0,VALID,93.4004,VALID,0,VALID,24.7724,VALID,299,VALID,0.860937,
2011-10-01, 02:53:04,VALID,1004.13,VALID,0,VALID,93.9344,VALID,0.0815089,VALID,24.714,VALID,320,VALID,0.483984,
2011-10-01, 02:54:04,VALID,1004.23,VALID,0,VALID,93.3851,VALID,0.0815089,VALID,24.6361,VALID,276,VALID,1.10156,
2011-10-01, 02:55:04,VALID,1004.31,VALID,0,VALID,93.881,VALID,0,VALID,24.5582,VALID,253,VALID,0.130469,
2011-10-01, 02:56:04,VALID,1004.34,VALID,0,VALID,92.7519,VALID,0,VALID,24.4414,VALID,230,VALID,1.14609,
2011-10-01, 02:57:04,VALID,1004.26,VALID,0.5,VALID,91.3253,VALID,0.0815089,VALID,24.2857,VALID,310,VALID,1.625,
2011-10-01, 02:58:04,VALID,1004.21,VALID,1,VALID,92.9503,VALID,0,VALID,24.091,VALID,351,VALID,1.41133,
2011-10-01, 02:59:04,VALID,1004.33,VALID,0.5,VALID,93.5682,VALID,0,VALID,23.9159,VALID,123,VALID,1.05898,
2011-10-01, 03:00:04,VALID,1004.03,VALID,0.5,VALID,94.293,VALID,0,VALID,23.7583,VALID,63,VALID,1.03398,
2011-10-01, 03:01:04,VALID,1003.96,VALID,1,VALID,94.1556,VALID,0,VALID,23.6044,VALID,118,VALID,2.68203,
2011-10-01, 03:02:04,VALID,1003.91,VALID,0,VALID,90.0132,VALID,0,VALID,23.6239,VALID,138,VALID,3.56719,
2011-10-01, 03:03:04,VALID,1003.98,VALID,0.5,VALID,94.4837,VALID,0,VALID,23.5266,VALID,241,VALID,0.707422,
2011-10-01, 03:04:04,VALID,1003.94,VALID,0.5,VALID,94.9185,VALID,0,VALID,23.4098,VALID,130,VALID,0.916016,
2011-10-01, 03:05:04,VALID,1003.94,VALID,0,VALID,94.7202,VALID,0,VALID,23.2931,VALID,62,VALID,0.960156,
2011-10-01, 03:06:04,VALID,1003.92,VALID,0.5,VALID,94.4074,VALID,0,VALID,23.1957,VALID,34,VALID,0.383594,
2011-10-01, 03:07:04,VALID,1003.9,VALID,0.5,VALID,93.9802,VALID,0.0815089,VALID,23.079,VALID,40,VALID,0.669531,
2011-10-01, 03:08:04,VALID,1003.86,VALID,0,VALID,93.9039,VALID,0,VALID,23.079,VALID,209,VALID,0.955078,
2011-10-01, 03:09:04,VALID,1003.82,VALID,0.5,VALID,92.6299,VALID,0,VALID,23.1179,VALID,166,VALID,0.767969,
2011-10-01, 03:10:04,VALID,1003.77,VALID,0,VALID,94.3158,VALID,0,VALID,23.0984,VALID,57,VALID,0.410937,
2011-10-01, 03:11:04,VALID,1003.75,VALID,0,VALID,94.4989,VALID,0,VALID,22.9817,VALID,355,VALID,1.24297,
2011-10-01, 03:12:04,VALID,1003.74,VALID,0,VALID,94.7354,VALID,0.0815089,VALID,22.9216,VALID,348,VALID,0.902344,
2011-10-01, 03:13:04,VALID,1003.69,VALID,0,VALID,94.9262,VALID,0,VALID,22.9021,VALID,346,VALID,1.27773,
2011-10-01, 03:14:04,VALID,1003.67,VALID,0,VALID,95.2618,VALID,0.0815089,VALID,22.9004,VALID,349,VALID,1.20391,
2011-10-01, 03:15:04,VALID,1003.7,VALID,0,VALID,95.3839,VALID,0.0815089,VALID,22.9039,VALID,350,VALID,1.07578,
2011-10-01, 03:16:04,VALID,1003.65,VALID,0.5,VALID,95.6814,VALID,0,VALID,22.9445,VALID,351,VALID,1.23945,
2011-10-01, 03:17:04,VALID,1003.66,VALID,0,VALID,95.7653,VALID,0.0815089,VALID,22.9233,VALID,3,VALID,0.734375,
2011-10-01, 03:18:04,VALID,1003.69,VALID,0,VALID,95.7653,VALID,0.0815089,VALID,22.8632,VALID,2,VALID,0.781641,
2011-10-01, 03:19:04,VALID,1003.73,VALID,0,VALID,95.834,VALID,0.0815089,VALID,22.8844,VALID,332,VALID,0.681641,
2011-10-01, 03:20:04,VALID,1003.79,VALID,0,VALID,96.1697,VALID,0.0815089,VALID,22.8827,VALID,290,VALID,0.422656,
2011-10-01, 03:21:04,VALID,1003.82,VALID,0,VALID,96.3146,VALID,0.0815089,VALID,22.9216,VALID,301,VALID,0.178516,
2011-10-01, 03:22:04,VALID,1003.8,VALID,0,VALID,96.162,VALID,0.0815089,VALID,22.9216,VALID,358,VALID,1.02734,
2011-10-01, 03:23:04,VALID,1003.78,VALID,0,VALID,95.8416,VALID,0.0815089,VALID,22.8827,VALID,349,VALID,1.29531,
2011-10-01, 03:24:04,VALID,1003.84,VALID,0,VALID,95.5594,VALID,0.0815089,VALID,22.8438,VALID,354,VALID,1.36133,
2011-10-01, 03:25:04,VALID,1003.9,VALID,0,VALID,95.8874,VALID,0,VALID,22.8438,VALID,349,VALID,0.576953,
2011-10-01, 03:26:04,VALID,1003.97,VALID,0,VALID,96.0781,VALID,0.0815089,VALID,22.8827,VALID,328,VALID,0.318359,
2011-10-01, 03:27:04,VALID,1004.11,VALID,0,VALID,96.2688,VALID,0,VALID,22.9021,VALID,289,VALID,2.13047,
2011-10-01, 03:28:04,VALID,1004.24,VALID,0,VALID,96.1392,VALID,0.0815089,VALID,22.9198,VALID,287,VALID,2.65391,
2011-10-01, 03:29:04,VALID,1004.26,VALID,0,VALID,96.1468,VALID,0.0815089,VALID,22.98,VALID,306,VALID,1.25273,
2011-10-01, 03:30:04,VALID,1004.19,VALID,0,VALID,95.6433,VALID,0.0815089,VALID,23.0206,VALID,38,VALID,1.25937,
2011-10-01, 03:31:04,VALID,1004.18,VALID,0,VALID,95.3229,VALID,0.0815089,VALID,23.0595,VALID,354,VALID,1.15391,
2011-10-01, 03:32:04,VALID,1004.26,VALID,0,VALID,95.422,VALID,0.0815089,VALID,23.0984,VALID,357,VALID,0.871875,
2011-10-01, 03:33:04,VALID,1004.29,VALID,0,VALID,95.6662,VALID,0.0815089,VALID,23.1162,VALID,358,VALID,0.734766,
2011-10-01, 03:34:04,VALID,1004.22,VALID,0,VALID,95.2923,VALID,0.0815089,VALID,23.1179,VALID,354,VALID,1.03281,
2011-10-01, 03:35:04,VALID,1004.17,VALID,0,VALID,95.0177,VALID,0.0815089,VALID,23.1162,VALID,30,VALID,1.44805,
2011-10-01, 03:36:04,VALID,1004.15,VALID,0,VALID,94.4227,VALID,0.0815089,VALID,23.1551,VALID,355,VALID,2.60195,
2011-10-01, 03:37:04,VALID,1004.12,VALID,0,VALID,94.0336,VALID,0.0815089,VALID,23.2347,VALID,21,VALID,2.1125,
2011-10-01, 03:38:04,VALID,1004.11,VALID,0,VALID,94.3158,VALID,0.0815089,VALID,23.2913,VALID,353,VALID,1.34492,
2011-10-01, 03:39:04,VALID,1004.07,VALID,0,VALID,94.682,VALID,0.0815089,VALID,23.2524,VALID,9,VALID,1.29648,
2011-10-01, 03:40:04,VALID,1004.03,VALID,0,VALID,94.6515,VALID,0.0815089,VALID,23.2329,VALID,3,VALID,1.19805,
2011-10-01, 03:41:04,VALID,1003.89,VALID,0,VALID,94.4608,VALID,0.0815089,VALID,23.2311,VALID,15,VALID,1.7,
2011-10-01, 03:42:04,VALID,1003.89,VALID,0,VALID,94.354,VALID,0.0815089,VALID,23.3125,VALID,18,VALID,1.24063,